SCP
0 0 0 0 0 0 0 0 0 0 0 0 0 0 0 0 0 0 0 0 0 0 0 0 0 0 0 0 0 0 0 0 0 0 0 0 0 0 0 0 0 0 -0
0 0 0 0 0 0 0 0 0 0 0 0 0 0 0 0 0 0 0 0 0 0 0 0 0 0 0 0 0 0 0 0 1 0 0 0 0 0 0 0 0 0 0
0 0 0 0 0 0 0 0 0 0 0 0 0 0 0 0 0 0 0 0 0 0 0 0 0 0 0 0 0 0 0 0 0 0 0 0 0 0 0 0 0 -0 0
0 0 0 0 0 0 0 0 0 0 0 0 0 0 0 0 0 0 0 0 0 0 0 0 0 0 0 0 0 0 0 0 0 0 0 0 0 0 0 0 -0 0 0
0 0 0 0 0 0 0 0 0 0 0 0 0 0 0 0 0 0 0 0 0 0 0 0 0 0 0 0 0 0 0 0 0 0 0 0 0 0 0 0 0 0 0
0 0 0 0 0 0 0 0 0 0 0 0 0 0 0 0 0 0 0 0 0 0 0 0 0 0 0 0 0 0 0 0 0 0 0 0 0 0 0 0 0 0 -0
0 0 0 0 0 0 0 0 0 0 0 0 0 0 0 0 0 0 0 0 0 0 0 0 0 0 0 0 0 0 0 0 -0 0 0 0 0 0 0 -0 0 0 0
0 0 0 0 0 0 0 0 0 0 0 0 0 0 0 0 0 0 0 0 0 0 0 0 0 0 0 0 0 0 0 0 0 0 0 0 0 0 0 0 -0 0 0
0 0 0 0 0 0 0 0 0 0 0 0 0 0 0 0 0 0 0 0 0 0 0 0 0 0 0 0 0 0 0 0 0 0 0 0 0 -0 0 0 0 0 -0
0 0 0 0 0 0 0 0 0 0 0 0 0 0 0 0 0 0 0 0 0 0 0 0 0 0 0 0 0 0 0 0 0 0 0 0 -0 0 0 0 0 -0 0
0 0 0 0 0 0 0 0 0 0 0 0 0 0 0 0 0 0 0 0 0 0 0 0 0 0 0 0 0 0 0 0 0 0 0 0 0 0 0 0 0 0 -0
0 0 0 0 0 0 0 0 0 0 0 0 0 0 0 0 0 0 0 0 0 0 0 0 0 0 0 0 0 0 0 0 0 0 0 0 -0 0 0 0 0 0 0
0 0 0 0 0 0 0 0 0 0 0 0 0 0 0 0 0 -0 0 0 0 0 0 0 0 0 0 0 0 0 0 0 0 0 0 -0 -0 0 0 0 0 0 -0
0 0 0 0 0 0 0 0 0 0 0 0 0 0 0 0 0 0 0 0 0 0 0 0 0 0 0 0 0 0 0 0 0 0 -0 -0 -0 0 0 0 0 0 -0
0 0 0 0 0 0 0 0 0 0 0 0 0 0 0 0 0 0 0 0 0 0 0 0 0 0 0 0 0 0 0 0 0 -0 -0 -0 -0 0 0 0 0 0 -0
0 0 0 0 0 0 0 0 0 0 0 0 0 0 0 0 -0 0 0 0 0 0 0 0 0 0 0 0 0 0 0 0 0 0 0 -0 -0 0 0 0 0 0 0
0 0 0 0 0 0 0 0 0 0 0 0 0 0 0 0 0 0 0 0 0 0 0 0 0 0 0 0 0 0 0 0 0 0 0 0 -0 -0 -0 0 0 0 0
0 0 0 0 0 0 0 0 0 0 0 0 0 0 0 0 0 0 0 0 0 0 0 0 0 0 0 0 0 0 0 0 0 0 0 0 -0 -0 -0 -0 -0 0 0
0 0 0 0 0 0 0 0 0 0 0 0 0 0 0 0 0 0 0 0 0 0 0 0 0 0 0 0 0 0 0 0 0 0 0 0 0 -0 -0 -0 -0 0 0
0 0 0 0 0 0 0 0 0 0 0 0 0 0 0 0 0 0 0 0 0 0 0 0 0 0 0 0 0 0 0 -0 -0 -0 0 0 0 0 -0 -0 -0 -0 0
0 0 0 0 0 0 0 0 0 0 0 0 0 0 0 0 0 0 0 0 0 0 0 0 0 0 0 0 0 0 -0 -0 -0 -0 0 0 0 0 0 0 0 0 0
0 0 0 0 0 0 0 0 0 0 0 0 0 0 0 0 0 0 0 0 0 0 0 0 0 -0 -0 0 0 0 -0 -0 -0 -0 -0 0 0 0 0 0 0 0 0
0 0 0 0 0 0 0 0 0 0 0 0 0 0 0 0 0 0 0 0 0 0 0 0 0 0 0 0 0 0 -0 -0 -0 -0 -0 -0 0 0 0 0 0 0 0
0 0 0 0 0 0 0 0 0 0 0 0 0 0 0 0 0 0 0 0 0 0 0 0 0 0 0 -0 0 0 -0 -0 -0 -0 -0 0 0 0 0 0 0 0 0
0 0 0 0 0 0 0 0 0 0 0 0 0 0 0 0 0 0 0 0 0 0 0 0 0 0 0 -0 -0 -0 -0 -0 -0 -0 0 0 -0 0 0 0 0 0 0
0 0 0 0 0 0 0 0 0 0 0 0 0 0 0 0 0 0 0 0 0 0 0 0 0 0 -0 -0 -0 -0 -0 -0 -0 -0 -0 0 0 0 0 0 0 0 0
Wind_Speed_500mb
87 92 92 86 79 73 64 56 50 46 46 48 51 53 54 55 57 59 60 64 66 69 70 75 83 83 86 87 85 87 90 91 98 111 129 116 107 108 105 101 99 106 110
87 94 94 88 79 70 63 55 48 45 47 50 50 51 52 54 56 58 62 64 68 71 72 77 85 84 86 89 88 90 93 94 92 102 122 102 111 109 104 119 107 101 103
90 93 92 88 80 72 64 54 48 46 47 50 49 49 51 53 57 59 64 68 69 71 74 79 86 85 88 85 86 90 89 90 88 94 111 97 108 118 112 104 97 107 96
91 95 93 92 81 70 59 53 48 48 49 47 45 45 51 56 59 61 64 67 71 75 78 82 84 81 86 87 89 91 91 90 85 88 95 99 97 100 94 96 96 88 94
93 94 94 89 79 70 59 54 52 50 47 43 41 45 52 56 57 60 65 69 75 81 84 83 81 80 79 80 89 97 92 91 87 85 88 89 89 88 78 82 84 93 70
95 92 94 92 81 70 63 58 52 48 41 37 41 46 53 55 55 58 64 71 78 80 85 81 81 82 82 79 82 88 90 95 95 92 94 96 98 96 97 94 83 85 48
91 88 96 87 76 69 63 56 50 44 38 37 40 46 51 52 53 57 66 73 76 78 78 82 84 81 84 90 90 85 87 87 92 93 99 98 95 92 90 94 92 91 73
87 91 91 87 78 71 63 55 47 40 36 35 38 44 48 48 52 58 68 68 74 79 84 84 88 97 92 87 94 93 92 93 87 86 95 101 103 101 101 102 102 94 96
85 88 91 83 76 69 59 49 41 38 33 31 37 41 46 46 49 57 56 64 75 86 87 86 89 92 87 87 92 99 102 100 87 86 91 94 98 90 88 86 94 79 90
88 91 89 82 71 62 51 42 38 34 29 30 34 38 43 46 48 52 48 61 80 89 97 87 87 86 78 82 87 95 101 96 90 80 88 88 84 89 89 95 99 99 62
83 91 91 83 73 61 48 42 36 31 28 27 32 32 35 41 47 42 44 56 72 87 97 101 91 79 83 89 86 89 101 92 88 89 95 92 89 90 82 86 96 89 85
88 93 88 78 66 55 47 41 34 28 23 25 28 28 30 36 42 42 46 53 62 74 84 86 90 89 83 77 76 79 65 68 81 86 84 82 79 82 76 75 89 84 74
95 93 84 70 60 54 46 38 30 23 20 21 21 26 30 35 40 44 50 55 60 66 67 75 78 68 67 65 62 59 44 52 67 72 78 83 82 79 75 71 67 91 91
98 87 80 70 62 52 44 35 25 22 19 16 17 21 28 34 39 52 59 66 70 68 73 77 67 56 60 54 62 55 47 48 53 56 51 61 72 81 76 68 67 74 68
95 91 82 71 59 51 40 31 25 20 15 13 13 18 26 31 39 45 51 59 64 61 70 74 77 77 70 76 66 68 64 56 50 52 58 67 63 71 72 67 70 71 68
102 94 82 68 59 51 44 35 27 18 11 9 10 13 19 22 30 39 46 50 51 54 67 74 76 77 73 75 80 76 75 70 65 55 58 54 58 43 61 73 64 70 71
101 89 75 69 62 56 46 37 28 20 13 7 5 11 17 23 26 33 40 46 53 60 72 75 75 77 77 78 84 76 85 79 77 59 68 64 57 60 70 48 74 73 72
102 83 77 67 61 53 46 37 31 24 16 9 2 9 15 18 24 33 41 46 56 64 70 76 79 79 80 80 91 80 93 90 87 75 77 69 56 56 60 71 60 58 70
86 82 73 66 58 51 44 39 34 27 20 12 5 5 8 14 21 28 36 49 59 66 71 76 80 82 83 83 91 84 92 93 86 83 85 71 57 52 58 65 76 83 71
85 77 74 69 63 54 48 42 36 29 23 16 11 7 3 12 18 27 39 47 55 61 66 72 79 85 88 89 93 86 99 100 87 92 86 77 62 52 54 58 65 71 74
93 81 71 66 58 52 44 39 33 26 21 16 11 5 8 14 20 31 38 45 51 57 62 68 73 83 93 97 97 93 105 106 99 97 92 85 70 63 50 52 58 60 66
87 81 74 65 58 52 46 40 34 27 21 17 11 5 8 9 19 27 33 39 43 49 54 63 70 76 87 97 93 95 111 112 116 109 100 88 78 66 51 46 43 42 48
86 78 73 65 57 50 46 40 35 29 22 17 11 7 3 9 19 23 31 37 41 45 51 59 67 73 77 88 97 90 109 114 119 107 101 92 84 73 53 40 30 22 43
77 74 69 64 57 50 44 39 34 28 22 17 12 6 3 11 17 23 29 35 38 42 48 54 60 68 73 80 89 94 107 114 117 111 103 96 89 75 51 31 20 16 35
72 69 62 56 51 50 46 39 31 27 23 18 11 5 3 9 14 20 28 33 37 43 47 52 55 62 70 75 80 88 107 109 118 113 113 106 96 82 58 40 19 13 26
65 58 54 49 48 46 41 35 32 30 24 18 11 4 3 8 14 21 27 31 36 40 45 51 55 56 64 73 78 85 92 106 114 116 116 116 113 102 79 60 38 6 16
Wind_Direction_500mb
237 235 232 228 226 228 233 237 245 257 269 278 285 289 294 299 299 300 302 299 296 295 294 292 290 286 280 274 272 271 269 266 265 267 271 278 275 279 282 283 276 266 265
235 233 230 226 224 226 230 236 246 258 267 276 282 289 296 300 303 304 303 301 299 297 298 294 292 291 285 282 277 273 271 269 268 271 274 275 277 281 278 277 274 279 270
232 231 228 221 221 224 228 237 246 256 265 272 281 291 299 304 303 305 304 303 301 299 298 297 297 295 289 284 279 276 274 273 271 270 274 275 277 278 282 280 275 273 266
231 230 228 220 220 222 227 236 248 255 263 272 285 297 302 304 306 309 308 305 303 301 301 299 296 290 286 286 282 277 276 273 272 270 272 275 277 282 283 280 278 269 272
230 229 225 218 218 219 224 233 243 253 263 275 291 298 302 304 308 310 308 306 306 305 302 299 296 293 287 284 281 279 275 272 269 268 269 273 274 280 279 280 273 273 256
231 228 220 215 215 218 223 231 241 251 262 279 290 299 300 303 309 311 311 309 305 304 306 302 296 296 291 288 284 276 272 271 266 265 266 266 268 272 281 282 289 285 274
228 225 217 213 214 219 224 231 238 248 263 278 290 298 301 306 310 313 311 307 306 308 305 305 303 295 293 292 291 284 274 268 264 266 267 267 270 273 276 278 279 282 290
226 223 214 212 212 218 225 231 239 249 261 277 292 298 302 310 310 312 309 310 313 315 312 304 301 299 295 294 291 286 285 279 274 270 266 268 269 272 270 268 270 274 279
223 218 211 211 213 217 223 231 239 250 264 283 295 300 304 310 312 314 321 321 319 315 311 307 304 303 300 298 291 287 284 279 279 268 267 268 266 261 266 266 263 264 267
222 212 207 209 214 221 224 230 241 253 269 287 297 303 308 313 318 326 327 323 319 315 317 312 307 305 304 301 295 291 286 281 278 275 275 275 268 265 263 254 255 257 252
216 206 204 206 210 216 223 229 238 252 270 287 296 307 310 319 326 330 327 323 319 318 312 315 314 314 309 305 301 290 282 281 276 271 273 277 275 264 268 260 248 251 249
207 200 203 203 208 216 221 227 233 247 267 284 301 311 318 325 332 333 328 324 323 317 318 320 319 314 312 312 307 309 290 271 276 270 272 274 277 259 271 261 248 254 250
198 195 197 201 208 213 218 220 229 243 264 285 300 314 327 334 340 338 331 329 328 327 328 322 318 320 317 317 318 316 310 289 286 278 271 272 270 270 273 261 257 251 257
193 192 195 202 206 209 213 217 227 241 257 278 301 323 336 341 344 346 335 336 335 333 332 338 346 331 336 324 332 332 321 302 294 288 279 282 279 272 255 265 253 254 251
190 193 197 200 201 203 207 211 217 230 250 279 308 334 339 342 348 334 337 339 337 335 336 351 358 358 346 343 341 339 336 331 316 303 286 275 274 272 262 259 251 253 248
190 190 194 197 198 204 199 199 205 212 237 273 321 326 338 342 334 335 343 346 344 345 355 359 358 352 343 339 342 338 337 333 329 315 308 294 278 275 260 260 251 249 248
193 190 195 197 199 196 194 193 192 194 199 230 290 321 354 347 341 347 348 356 0 1 7 3 1 355 343 340 343 338 335 333 335 326 317 307 288 272 260 276 256 246 239
190 191 198 198 194 189 186 185 185 188 185 190 259 358 359 359 357 359 358 354 3 11 9 5 3 360 349 342 350 341 337 335 336 331 319 315 299 285 270 261 263 254 248
188 189 190 191 187 188 184 180 182 178 175 165 136 50 8 12 9 7 9 10 10 11 9 8 7 5 357 351 351 348 338 336 337 329 324 321 313 296 276 265 260 256 256
182 192 189 187 185 181 181 180 177 172 167 155 132 104 62 30 11 15 18 14 12 9 7 7 9 10 5 359 355 349 342 341 340 335 330 330 325 311 292 279 269 262 251
181 186 183 183 180 179 177 177 173 170 158 138 122 102 68 34 13 17 12 11 9 6 5 6 10 11 11 8 2 353 346 346 344 340 337 336 333 323 306 287 273 261 251
179 181 180 181 178 174 174 177 172 166 155 140 133 125 66 27 25 17 11 9 7 4 4 4 6 10 12 11 6 355 351 351 348 350 345 341 338 332 315 292 274 263 245
180 178 178 173 175 173 174 176 171 163 154 146 158 141 81 26 24 13 12 9 5 2 2 5 6 7 12 13 12 2 356 356 355 359 353 349 347 343 332 311 288 250 239
177 178 175 172 170 172 177 178 172 160 160 165 171 157 60 26 12 5 8 5 360 2 3 3 6 7 7 13 11 8 2 1 3 8 6 1 359 357 349 333 309 227 227
177 176 175 170 169 177 178 177 169 166 172 179 182 183 46 21 4 1 1 357 355 356 1 4 4 5 6 11 14 7 2 4 5 12 16 14 13 11 10 4 355 190 216
176 174 172 169 176 180 179 177 177 178 179 185 191 205 7 1 356 0 356 349 350 354 358 1 2 2 6 10 12 17 2 4 2 13 18 21 22 21 18 20 27 119 187
Wind_Speed_850mb
87 92 92 86 79 73 64 56 50 46 46 48 51 53 54 55 57 59 60 64 66 69 70 75 83 83 86 87 85 87 90 91 98 111 129 116 107 108 105 101 99 106 110
87 94 94 88 79 70 63 55 48 45 47 50 50 51 52 54 56 58 62 64 68 71 72 77 85 84 86 89 88 90 93 94 92 102 122 102 111 109 104 119 107 101 103
90 93 92 88 80 72 64 54 48 46 47 50 49 49 51 53 57 59 64 68 69 71 74 79 86 85 88 85 86 90 89 90 88 94 111 97 108 118 112 104 97 107 96
91 95 93 92 81 70 59 53 48 48 49 47 45 45 51 56 59 61 64 67 71 75 78 82 84 81 86 87 89 91 91 90 85 88 95 99 97 100 94 96 96 88 94
93 94 94 89 79 70 59 54 52 50 47 43 41 45 52 56 57 60 65 69 75 81 84 83 81 80 79 80 89 97 92 91 87 85 88 89 89 88 78 82 84 93 70
95 92 94 92 81 70 63 58 52 48 41 37 41 46 53 55 55 58 64 71 78 80 85 81 81 82 82 79 82 88 90 95 95 92 94 96 98 96 97 94 83 85 48
91 88 96 87 76 69 63 56 50 44 38 37 40 46 51 52 53 57 66 73 76 78 78 82 84 81 84 90 90 85 87 87 92 93 99 98 95 92 90 94 92 91 73
87 91 91 87 78 71 63 55 47 40 36 35 38 44 48 48 52 58 68 68 74 79 84 84 88 97 92 87 94 93 92 93 87 86 95 101 103 101 101 102 102 94 96
85 88 91 83 76 69 59 49 41 38 33 31 37 41 46 46 49 57 56 64 75 86 87 86 89 92 87 87 92 99 102 100 87 86 91 94 98 90 88 86 94 79 90
88 91 89 82 71 62 51 42 38 34 29 30 34 38 43 46 48 52 48 61 80 89 97 87 87 86 78 82 87 95 101 96 90 80 88 88 84 89 89 95 99 99 62
83 91 91 83 73 61 48 42 36 31 28 27 32 32 35 41 47 42 44 56 72 87 97 101 91 79 83 89 86 89 101 92 88 89 95 92 89 90 82 86 96 89 85
88 93 88 78 66 55 47 41 34 28 23 25 28 28 30 36 42 42 46 53 62 74 84 86 90 89 83 77 76 79 65 68 81 86 84 82 79 82 76 75 89 84 74
95 93 84 70 60 54 46 38 30 23 20 21 21 26 30 35 40 44 50 55 60 66 67 75 78 68 67 65 62 59 44 52 67 72 78 83 82 79 75 71 67 91 91
98 87 80 70 62 52 44 35 25 22 19 16 17 21 28 34 39 52 59 66 70 68 73 77 67 56 60 54 62 55 47 48 53 56 51 61 72 81 76 68 67 74 68
95 91 82 71 59 51 40 31 25 20 15 13 13 18 26 31 39 45 51 59 64 61 70 74 77 77 70 76 66 68 64 56 50 52 58 67 63 71 72 67 70 71 68
102 94 82 68 59 51 44 35 27 18 11 9 10 13 19 22 30 39 46 50 51 54 67 74 76 77 73 75 80 76 75 70 65 55 58 54 58 43 61 73 64 70 71
101 89 75 69 62 56 46 37 28 20 13 7 5 11 17 23 26 33 40 46 53 60 72 75 75 77 77 78 84 76 85 79 77 59 68 64 57 60 70 48 74 73 72
102 83 77 67 61 53 46 37 31 24 16 9 2 9 15 18 24 33 41 46 56 64 70 76 79 79 80 80 91 80 93 90 87 75 77 69 56 56 60 71 60 58 70
86 82 73 66 58 51 44 39 34 27 20 12 5 5 8 14 21 28 36 49 59 66 71 76 80 82 83 83 91 84 92 93 86 83 85 71 57 52 58 65 76 83 71
85 77 74 69 63 54 48 42 36 29 23 16 11 7 3 12 18 27 39 47 55 61 66 72 79 85 88 89 93 86 99 100 87 92 86 77 62 52 54 58 65 71 74
93 81 71 66 58 52 44 39 33 26 21 16 11 5 8 14 20 31 38 45 51 57 62 68 73 83 93 97 97 93 105 106 99 97 92 85 70 63 50 52 58 60 66
87 81 74 65 58 52 46 40 34 27 21 17 11 5 8 9 19 27 33 39 43 49 54 63 70 76 87 97 93 95 111 112 116 109 100 88 78 66 51 46 43 42 48
86 78 73 65 57 50 46 40 35 29 22 17 11 7 3 9 19 23 31 37 41 45 51 59 67 73 77 88 97 90 109 114 119 107 101 92 84 73 53 40 30 22 43
77 74 69 64 57 50 44 39 34 28 22 17 12 6 3 11 17 23 29 35 38 42 48 54 60 68 73 80 89 94 107 114 117 111 103 96 89 75 51 31 20 16 35
72 69 62 56 51 50 46 39 31 27 23 18 11 5 3 9 14 20 28 33 37 43 47 52 55 62 70 75 80 88 107 109 118 113 113 106 96 82 58 40 19 13 26
65 58 54 49 48 46 41 35 32 30 24 18 11 4 3 8 14 21 27 31 36 40 45 51 55 56 64 73 78 85 92 106 114 116 116 116 113 102 79 60 38 6 16
Wind_Direction_850mb
237 235 232 228 226 228 233 237 245 257 269 278 285 289 294 299 299 300 302 299 296 295 294 292 290 286 280 274 272 271 269 266 265 267 271 278 275 279 282 283 276 266 265
235 233 230 226 224 226 230 236 246 258 267 276 282 289 296 300 303 304 303 301 299 297 298 294 292 291 285 282 277 273 271 269 268 271 274 275 277 281 278 277 274 279 270
232 231 228 221 221 224 228 237 246 256 265 272 281 291 299 304 303 305 304 303 301 299 298 297 297 295 289 284 279 276 274 273 271 270 274 275 277 278 282 280 275 273 266
231 230 228 220 220 222 227 236 248 255 263 272 285 297 302 304 306 309 308 305 303 301 301 299 296 290 286 286 282 277 276 273 272 270 272 275 277 282 283 280 278 269 272
230 229 225 218 218 219 224 233 243 253 263 275 291 298 302 304 308 310 308 306 306 305 302 299 296 293 287 284 281 279 275 272 269 268 269 273 274 280 279 280 273 273 256
231 228 220 215 215 218 223 231 241 251 262 279 290 299 300 303 309 311 311 309 305 304 306 302 296 296 291 288 284 276 272 271 266 265 266 266 268 272 281 282 289 285 274
228 225 217 213 214 219 224 231 238 248 263 278 290 298 301 306 310 313 311 307 306 308 305 305 303 295 293 292 291 284 274 268 264 266 267 267 270 273 276 278 279 282 290
226 223 214 212 212 218 225 231 239 249 261 277 292 298 302 310 310 312 309 310 313 315 312 304 301 299 295 294 291 286 285 279 274 270 266 268 269 272 270 268 270 274 279
223 218 211 211 213 217 223 231 239 250 264 283 295 300 304 310 312 314 321 321 319 315 311 307 304 303 300 298 291 287 284 279 279 268 267 268 266 261 266 266 263 264 267
222 212 207 209 214 221 224 230 241 253 269 287 297 303 308 313 318 326 327 323 319 315 317 312 307 305 304 301 295 291 286 281 278 275 275 275 268 265 263 254 255 257 252
216 206 204 206 210 216 223 229 238 252 270 287 296 307 310 319 326 330 327 323 319 318 312 315 314 314 309 305 301 290 282 281 276 271 273 277 275 264 268 260 248 251 249
207 200 203 203 208 216 221 227 233 247 267 284 301 311 318 325 332 333 328 324 323 317 318 320 319 314 312 312 307 309 290 271 276 270 272 274 277 259 271 261 248 254 250
198 195 197 201 208 213 218 220 229 243 264 285 300 314 327 334 340 338 331 329 328 327 328 322 318 320 317 317 318 316 310 289 286 278 271 272 270 270 273 261 257 251 257
193 192 195 202 206 209 213 217 227 241 257 278 301 323 336 341 344 346 335 336 335 333 332 338 346 331 336 324 332 332 321 302 294 288 279 282 279 272 255 265 253 254 251
190 193 197 200 201 203 207 211 217 230 250 279 308 334 339 342 348 334 337 339 337 335 336 351 358 358 346 343 341 339 336 331 316 303 286 275 274 272 262 259 251 253 248
190 190 194 197 198 204 199 199 205 212 237 273 321 326 338 342 334 335 343 346 344 345 355 359 358 352 343 339 342 338 337 333 329 315 308 294 278 275 260 260 251 249 248
193 190 195 197 199 196 194 193 192 194 199 230 290 321 354 347 341 347 348 356 0 1 7 3 1 355 343 340 343 338 335 333 335 326 317 307 288 272 260 276 256 246 239
190 191 198 198 194 189 186 185 185 188 185 190 259 358 359 359 357 359 358 354 3 11 9 5 3 360 349 342 350 341 337 335 336 331 319 315 299 285 270 261 263 254 248
188 189 190 191 187 188 184 180 182 178 175 165 136 50 8 12 9 7 9 10 10 11 9 8 7 5 357 351 351 348 338 336 337 329 324 321 313 296 276 265 260 256 256
182 192 189 187 185 181 181 180 177 172 167 155 132 104 62 30 11 15 18 14 12 9 7 7 9 10 5 359 355 349 342 341 340 335 330 330 325 311 292 279 269 262 251
181 186 183 183 180 179 177 177 173 170 158 138 122 102 68 34 13 17 12 11 9 6 5 6 10 11 11 8 2 353 346 346 344 340 337 336 333 323 306 287 273 261 251
179 181 180 181 178 174 174 177 172 166 155 140 133 125 66 27 25 17 11 9 7 4 4 4 6 10 12 11 6 355 351 351 348 350 345 341 338 332 315 292 274 263 245
180 178 178 173 175 173 174 176 171 163 154 146 158 141 81 26 24 13 12 9 5 2 2 5 6 7 12 13 12 2 356 356 355 359 353 349 347 343 332 311 288 250 239
177 178 175 172 170 172 177 178 172 160 160 165 171 157 60 26 12 5 8 5 360 2 3 3 6 7 7 13 11 8 2 1 3 8 6 1 359 357 349 333 309 227 227
177 176 175 170 169 177 178 177 169 166 172 179 182 183 46 21 4 1 1 357 355 356 1 4 4 5 6 11 14 7 2 4 5 12 16 14 13 11 10 4 355 190 216
176 174 172 169 176 180 179 177 177 178 179 185 191 205 7 1 356 0 356 349 350 354 358 1 2 2 6 10 12 17 2 4 2 13 18 21 22 21 18 20 27 119 187